Location: Lugrin
(46.4033°N, 6.6674°E)
Time: 09:46:04
(UTC+00:00)

N. Korean satellite - Pass Details

Date: 26 November 2020
Orbit: 453 x 502 km, 97.2° (Epoch: 16 January)

Event Time Altitude Azimuth Distance (km) Brightness Sun altitude
Rises 16:58:31 0° 198° (SSW) 2,453 10.7 -11.4°
Reaches altitude 10° 17:00:53 10° 215° (SW) 1,588 10.0 -11.8°
Maximum altitude 17:03:31 21° 266° (W) 1,087 9.4 -12.3°
Drops below altitude 10° 17:06:11 10° 317° (NW) 1,607 9.5 -12.7°
Sets 17:08:37 0° 334° (NNW) 2,494 10.3 -13.1°
